Location: New Paltz
(41.7500°N, 74.0833°W)
Time: 00:59:16
(UTC-05:00)

Daily predictions for brighter satellites

Satellite Brightness Start Highest point End
(mag) Time Altitude Azimuth Time Altitude Azimuth Time Altitude Azimuth
USA 229 DEB 4.4 03:47:01 48° SSE 03:47:01 48° SSE 03:52:02 10° SSE
USA 229 4.4 03:47:04 48° SSE 03:47:04 48° SSE 03:52:08 10° SSE
Cosmos 2369 Rocket 3.9 03:51:43 25° NNE 03:53:10 28° NE 03:57:57 10° ESE
CZ-4B R/B 4.0 03:51:51 10° NNE 03:57:23 51° E 03:58:55 40° SE
Atlas Centaur 2 4.3 04:03:42 22° S 04:03:42 22° S 04:08:33 10° SSE
Cosmos 968 Rocket 4.3 04:04:08 49° ENE 04:04:08 49° ENE 04:08:55 10° SE
Lacrosse 5 rocket 3.9 04:07:15 17° NNE 04:07:15 17° NNE 04:08:24 10° NE
Cosmos 1943 Rocket 3.9 04:12:50 16° N 04:16:17 28° NE 04:21:07 10° ESE
Cosmos 1782 4.0 04:28:28 39° ESE 04:28:28 39° ESE 04:31:21 10° SSE
COSMO-SKYMED 1 4.2 04:27:54 10° SE 04:31:44 32° ENE 04:35:21 11° N
ATLAS 5 CENTAUR R/B 2.3 04:31:25 46° SSE 04:32:22 56° ESE 04:37:13 10° NE
PAYLOAD B 4.4 04:31:47 10° N 04:36:17 54° NNW 04:36:17 54° NNW
Cosmos 1943 3.7 04:33:13 10° S 04:38:46 59° ESE 04:44:21 10° NNE
Okean 1-7 3.2 04:46:20 33° N 04:48:14 70° E 04:52:32 10° SSE
CZ-4B DEB 4.3 04:44:28 10° N 04:49:25 51° NW 04:49:25 51° NW
Cosmos 1447 Rocket 4.4 04:45:10 10° SSW 04:51:25 64° W 04:57:39 10° N
IDEFIX/ARIANE 42P 3.9 04:48:37 10° NNE 04:53:30 40° E 04:58:21 10° SSE
Meteor 2-6 Rocket 4.4 04:48:04 10° N 04:53:59 82° E 04:59:58 10° SSE
CZ-2C R/B 4.3 04:51:58 10° NNE 04:56:34 32° E 05:01:02 10° SSE
IRS-1C Rocket 4.1 04:53:19 10° N 04:58:27 55° WNW 05:03:32 10° SSW
Cosmos 2263 4.5 04:57:11 17° NNW 05:01:39 69° ENE 05:07:24 10° SSE
Genesis I 3.4 05:00:41 28° SSW 05:02:35 68° ESE 05:06:32 10° NE
IRS-P2 Rocket 4.5 04:57:33 10° N 05:02:46 66° WNW 05:07:54 10° SSW
Cosmos 1862 3.7 05:00:32 10° S 05:04:26 63° E 05:08:23 10° NNE
NOSS 3-1 (C) 4.3 05:08:24 29° WNW 05:12:09 48° WSW 05:20:10 10° S
Cosmos 1733 Rocket 4.4 05:10:33 10° SSE 05:14:35 40° E 05:18:41 10° NNE
Cosmos 1606 3.8 05:18:20 28° SW 05:18:20 28° SW 05:20:35 10° SSW
SL-16 R/B 4.0 05:20:04 14° NNW 05:20:04 14° NNW 05:21:37 10° N
Cosmos 1441 Rocket 3.0 05:16:45 28° NNW 05:18:35 74° W 05:22:16 10° S
SKYMED 2 3.4 05:15:19 10° S 05:19:39 77° W 05:23:56 10° NNW
Cosmos 1603 4.3 05:21:24 29° W 05:23:08 35° WNW 05:28:19 10° N
MTI 4.3 05:22:03 10° S 05:24:41 39° WSW 05:24:41 39° WSW
Abrixas rocket 2.5 05:24:20 41° NNW 05:25:05 55° NNE 05:28:14 10° ESE
ATLAS 2AS CENTAUR R/B 4.0 05:17:38 10° NNW 05:25:12 42° NE 05:32:14 10° ESE
SL-8 R/B 4.1 05:24:21 31° WNW 05:26:06 46° NNW 05:30:42 10° ENE
Cosmos 1464 Rocket 3.9 05:19:53 10° NNW 05:26:10 73° W 05:32:29 10° S
CZ-2C R/B 4.4 05:26:34 10° SSW 05:30:29 30° W 05:31:17 28° WNW
Meteor 1-27 Rocket 3.7 05:25:08 10° NNW 05:30:57 78° W 05:36:37 10° S
Gbstr 26 Del rocket 4.4 05:29:51 18° NNW 05:31:52 25° NNE 05:35:10 10° ENE
Cosmos 1777 Rocket 3.9 05:27:24 13° NNW 05:31:57 64° WSW 05:37:04 10° S
Cosmos 2369 Rocket 2.5 05:33:33 18° NW 05:37:20 44° WSW 05:42:36 10° S
CZ-4B R/B 4.2 05:33:07 10° N 05:37:34 24° WNW 05:40:47 15° WSW
NOSS 3-1 (A) 4.5 05:33:22 18° NW 05:38:54 44° WSW 05:46:47 10° S
Intercosmos 25 4.4 05:38:43 25° WNW 05:39:51 29° W 05:44:07 10° SSW
Shenzhou-11 Module 4.3 05:37:25 10° SSW 05:39:52 22° SSE 05:42:18 10° E
CZ-3B R/B 2.5 05:41:43 33° N 05:41:43 33° N 05:43:00 10° NNE
Cosmos 1818 4.1 05:36:02 10° NNW 05:41:26 59° NE 05:46:47 10° SE
Lacrosse 4 Rocket 1.3 05:38:13 10° SSW 05:42:35 79° WNW 05:46:52 10° NNE
Cosmos 371 Rocket 4.3 05:39:30 10° S 05:44:09 50° ESE 05:48:49 10° NNE
Lacrosse 5 rocket 3.4 05:42:58 14° NW 05:44:12 16° NNW 05:47:01 10° NNE
Tsikada Rocket 4.1 05:38:13 10° S 05:44:29 86° E 05:50:43 10° N
Tiangong 2 4.4 05:44:26 10° SSE 05:45:30 11° SE 05:46:36 10° ESE
CZ-4 R/B 3.9 05:44:41 10° NE 05:48:00 25° E 05:51:21 10° SSE
MSX 3.9 05:43:34 10° NNE 05:49:23 82° ESE 05:55:08 10° SSW
PAYLOAD A 4.2 05:45:28 10° N 05:50:40 57° WNW 05:55:57 10° SSW
Okean 3 4.3 05:47:41 10° N 05:51:50 52° E 05:55:58 10° SSE
Ariane Rocket 4.4 05:47:06 10° NNE 05:51:54 42° E 05:56:39 10° S
Aureole 3 2.8 05:51:34 10° SSW 05:54:26 44° W 05:57:22 10° N
Cosmos 405 Rocket 3.9 05:53:27 18° WNW 05:54:30 21° W 05:57:21 10° SW
NOAA 6 4.5 05:50:03 10° N 05:54:45 37° WNW 05:59:25 10° SW
Okean-O 3.3 05:54:22 10° N 05:58:16 31° WNW 06:02:09 10° SW
Cosmos 1867 4.4 05:53:37 10° SSW 05:58:53 56° ESE 06:04:13 10° NE
PSLV R/B 3.5 05:57:13 17° W 05:59:24 54° SSW 06:02:31 10° ESE
Cosmos 1943 Rocket 2.5 05:54:50 10° NW 06:00:13 45° WSW 06:05:34 10° S
NOSS 2-1 (C) 4.3 05:58:18 10° SSW 06:01:51 48° ESE 06:05:42 10° NE
NOSS 2-1 (D) 4.2 05:58:30 10° SSW 06:02:03 50° ESE 06:05:56 10° NE
COSMO-SKYMED 1 3.8 06:04:29 10° SSW 06:07:55 23° W 06:11:23 10° NW
Cosmos 1656 Rocket 3.6 06:03:21 10° NNW 06:08:49 90° ENE 06:14:13 10° SSE
Cosmos 332 Rocket 3.7 06:05:42 10° SSW 06:10:29 77° WNW 06:15:20 10° NNE
COSMOS 2406 4.2 06:07:53 10° S 06:13:29 55° ESE 06:19:07 10° NNE
COSMOS 2441 4.4 06:08:58 10° N 06:13:48 62° WNW 06:18:36 10° SSW
CSL-04 Rocket 4.0 06:09:31 10° NNE 06:15:04 78° ESE 06:20:37 10° S
Cosmos 1937 Rocket 4.5 06:11:41 10° N 06:16:39 47° ENE 06:21:35 10° SE
ATLAS 5 CENTAUR R/B 3.0 06:13:39 10° W 06:17:26 23° NW 06:21:31 10° NNE
SJ-7 4.3 06:13:54 10° NNE 06:17:54 86° WNW 06:21:53 10° SSW
Cosmos 1674 Rocket 3.6 06:13:51 10° NNW 06:18:04 54° W 06:22:17 10° S
TIMED 4.5 06:15:42 10° NNW 06:20:05 82° WSW 06:24:28 10° SSE
Thor Agena Rocket 3.6 06:15:56 10° S 06:20:53 55° WSW 06:25:52 10° NNW
SJ-12 4.3 06:18:52 10° N 06:22:46 43° WNW 06:26:38 10° SW
Cosmos 1943 4.3 06:18:47 10° WSW 06:23:13 23° NW 06:27:40 10° N
IRAS Rocket 4.2 06:21:02 10° NNE 06:26:32 83° WNW 06:32:02 10° SSW
Cosmos 1633 2.9 06:24:44 10° S 06:28:18 72° E 06:31:55 10° NNE
NOSS 2-1 (E) 3.3 06:25:24 10° SSW 06:29:06 88° SE 06:33:17 10° NE
